Weather in Pyay

Myanmar     18°49′02″N   95°13′44″E
temp.,
°C
wind,
m/s
gust,
m/s
humid.,
%
clouds,
%
prec.,
mm/h
press.,
hPa
HPBL,
m
13 april, tue
tue1300:30+29ssw365551 0.1 1011229
03:30+27s25625 0.1 1010226
06:30+27se246515 0.1 1011204
09:30+33s334135 0.0 1012934
12:30+38s332310 0.0 10091933
15:30+41se34178 0.0 10052887
18:30+36wsw47317 0.0 1005340
21:30+31wsw48524 0.0 1008307
14 april, wed
wed1400:30+29s23565 0.0 1009214
03:30+27s23626 0.0 100898
06:30+27sse24685 0.0 1010248
09:30+33sse33445 0.0 1011953
12:30+39s232021 0.0 10081959
15:30+41ese1414100 0.0 10043635
18:30+35wsw5834100 0.0 1004459
21:30+30wsw4750100 0.0 1008286
15 april, thu
thu1500:30+28s355722 0.0 1008256
03:30+27s246398 0.0 1008202
06:30+26s2368100 0.0 1009199
09:30+32s22395 0.0 1011886
12:30+39s231965 0.0 10081924
15:30+41se24156 0.0 10033471
18:30+34wsw684030 0.0 1005565
21:30+29wsw49605 0.0 1008364
16 april, fri
fri1600:30
03:30+27s256783 0.0 1007246
06:30+26s247384 0.0 1009212
09:30+32sse334499 0.0 1010956
12:30+38ssw23227 0.0 10081942
15:30+41se35165 0.0 10033294
18:30+34wsw69330 0.0 1004460
21:30+30w37563 0.0 1008287
17 april, sat
sat1700:30+28sw246671 0.0 1009235
03:30+27w247233 0.0 1009257
06:30+27wnw11695 0.0 1010128
09:30+33se22435 0.0 10121059
12:30+38sse32275 0.0 10092354
15:30+40se452215 0.0 10053155
18:30+35wsw563495 0.2 1006603
21:30+31se345062 0.0 1010506